Time,TemperatureF,DewpointF,PressureIn,WindDirection,WindDirectionDegrees,WindSpeedMPH,WindSpeedGustMPH,Humidity,HourlyPrecipIn,Conditions,Clouds,dailyrainin,SoftwareType,DateUTC
2013-02-24 00:00:00,26.8,19.9,29.68,South,180,0.0,1.6,75,0.00,,---,0.00,VWS V14.01,2013-02-24 06:00:00,
2013-02-24 00:05:00,26.8,19.9,29.68,SSW,202,1.3,2.5,75,0.00,,---,0.00,VWS V14.01,2013-02-24 06:05:00,
2013-02-24 00:10:00,26.6,20.1,29.68,South,180,0.0,0.0,76,0.00,,---,0.00,VWS V14.01,2013-02-24 06:10:00,
2013-02-24 00:15:00,26.8,20.2,29.68,South,180,0.0,0.0,76,0.00,,---,0.00,VWS V14.01,2013-02-24 06:15:00,
2013-02-24 00:20:00,26.6,20.1,29.68,South,180,1.1,1.3,76,0.00,,---,0.00,VWS V14.01,2013-02-24 06:20:00,
2013-02-24 00:25:00,26.6,20.1,29.68,SSE,158,1.1,2.5,76,0.00,,---,0.00,VWS V14.01,2013-02-24 06:25:00,
2013-02-24 00:30:00,26.4,19.9,29.68,South,180,1.1,1.3,76,0.00,,---,0.00,VWS V14.01,2013-02-24 06:30:00,
2013-02-24 00:35:00,26.2,19.7,29.68,SSE,158,1.6,1.6,76,0.00,,---,0.00,VWS V14.01,2013-02-24 06:35:00,
2013-02-24 00:40:00,26.1,19.5,29.68,SSE,158,1.6,1.6,76,0.00,,---,0.00,VWS V14.01,2013-02-24 06:40:00,
2013-02-24 00:46:00,26.1,19.5,29.68,SSE,158,2.2,2.2,76,0.00,,---,0.00,VWS V14.01,2013-02-24 06:46:00,
2013-02-24 00:51:00,25.9,19.4,29.68,SSE,158,2.5,2.5,76,0.00,,---,0.00,VWS V14.01,2013-02-24 06:51:00,
2013-02-24 00:56:00,25.7,19.5,29.68,SSE,158,0.0,0.0,77,0.00,,---,0.00,VWS V14.01,2013-02-24 06:56:00,
2013-02-24 01:01:00,25.5,19.3,29.68,SSE,158,2.5,2.5,77,0.00,,---,0.00,VWS V14.01,2013-02-24 07:01:00,
2013-02-24 01:06:00,25.5,19.3,29.68,SSE,158,1.1,1.1,77,0.00,,---,0.00,VWS V14.01,2013-02-24 07:06:00,
2013-02-24 01:11:00,25.5,19.3,29.68,South,180,2.0,2.9,77,0.00,,---,0.00,VWS V14.01,2013-02-24 07:11:00,
2013-02-24 01:16:00,25.5,19.3,29.68,SSW,202,2.9,2.9,77,0.00,,---,0.00,VWS V14.01,2013-02-24 07:16:00,
2013-02-24 01:21:00,25.7,19.5,29.68,SSE,158,3.1,3.1,77,0.00,,---,0.00,VWS V14.01,2013-02-24 07:21:00,
2013-02-24 01:26:00,25.7,19.5,29.71,South,180,2.5,2.5,77,0.00,,---,0.00,VWS V14.01,2013-02-24 07:26:00,
2013-02-24 01:31:00,25.7,19.5,29.71,SSE,158,1.6,2.7,77,0.00,,---,0.00,VWS V14.01,2013-02-24 07:31:00,
2013-02-24 01:36:00,25.7,19.5,29.71,South,180,4.0,4.0,77,0.00,,---,0.00,VWS V14.01,2013-02-24 07:36:00,
2013-02-24 01:41:00,25.7,19.5,29.71,South,180,2.5,2.7,77,0.00,,---,0.00,VWS V14.01,2013-02-24 07:41:00,
2013-02-24 01:46:00,25.7,19.5,29.71,South,180,2.5,2.5,77,0.00,,---,0.00,VWS V14.01,2013-02-24 07:46:00,
2013-02-24 01:51:00,25.5,19.3,29.71,SSE,158,3.1,3.1,77,0.00,,---,0.00,VWS V14.01,2013-02-24 07:51:00,
2013-02-24 01:56:00,25.5,19.3,29.71,South,180,2.2,2.2,77,0.00,,---,0.00,VWS V14.01,2013-02-24 07:56:00,
2013-02-24 02:01:00,25.3,19.1,29.71,SSE,158,2.7,2.7,77,0.00,,---,0.00,VWS V14.01,2013-02-24 08:01:00,
2013-02-24 02:06:00,25.3,19.1,29.71,South,180,3.1,3.1,77,0.00,,---,0.00,VWS V14.01,2013-02-24 08:06:00,
2013-02-24 02:11:00,25.3,19.1,29.71,SSE,158,2.7,3.1,77,0.00,,---,0.00,VWS V14.01,2013-02-24 08:11:00,
2013-02-24 02:16:00,25.0,18.8,29.71,South,180,2.2,2.2,77,0.00,,---,0.00,VWS V14.01,2013-02-24 08:16:00,
2013-02-24 02:21:00,25.0,18.8,29.71,SSE,158,1.6,1.6,77,0.00,,---,0.00,VWS V14.01,2013-02-24 08:21:00,
2013-02-24 02:26:00,24.8,18.6,29.71,South,180,1.6,3.1,77,0.00,,---,0.00,VWS V14.01,2013-02-24 08:26:00,
2013-02-24 02:31:00,24.8,18.6,29.71,South,180,0.0,0.0,77,0.00,,---,0.00,VWS V14.01,2013-02-24 08:31:00,
2013-02-24 02:36:00,24.8,18.6,29.71,SSW,202,1.1,2.2,77,0.00,,---,0.00,VWS V14.01,2013-02-24 08:36:00,
2013-02-24 02:41:00,24.6,18.5,29.71,SSW,202,2.2,3.6,77,0.00,,---,0.00,VWS V14.01,2013-02-24 08:41:00,
2013-02-24 02:46:00,24.6,18.5,29.71,South,180,2.0,2.0,77,0.00,,---,0.00,VWS V14.01,2013-02-24 08:46:00,
2013-02-24 02:51:00,24.4,18.3,29.71,South,180,1.1,1.1,77,0.00,,---,0.00,VWS V14.01,2013-02-24 08:51:00,
2013-02-24 02:56:00,24.4,18.3,29.71,SSE,158,1.1,1.1,77,0.00,,---,0.00,VWS V14.01,2013-02-24 08:56:00,
2013-02-24 03:01:00,24.3,18.1,29.71,SSE,158,2.0,4.7,77,0.00,,---,0.00,VWS V14.01,2013-02-24 09:01:00,
2013-02-24 03:06:00,24.3,18.1,29.71,SSE,158,2.7,2.7,77,0.00,,---,0.00,VWS V14.01,2013-02-24 09:06:00,
2013-02-24 03:11:00,24.3,18.4,29.71,SSE,158,3.4,3.4,78,0.00,,---,0.00,VWS V14.01,2013-02-24 09:11:00,
2013-02-24 03:16:00,24.1,18.2,29.71,South,180,0.9,1.1,78,0.00,,---,0.00,VWS V14.01,2013-02-24 09:16:00,
2013-02-24 03:21:00,23.9,18.0,29.71,South,180,1.6,1.6,78,0.00,,---,0.00,VWS V14.01,2013-02-24 09:21:00,
2013-02-24 03:26:00,23.9,18.0,29.71,SSE,158,1.1,1.1,78,0.00,,---,0.00,VWS V14.01,2013-02-24 09:26:00,
2013-02-24 03:31:00,23.9,18.0,29.71,South,180,1.6,3.1,78,0.00,,---,0.00,VWS V14.01,2013-02-24 09:31:00,
2013-02-24 03:36:00,23.9,18.0,29.71,SSW,202,2.0,2.0,78,0.00,,---,0.00,VWS V14.01,2013-02-24 09:36:00,
2013-02-24 03:41:00,24.1,18.2,29.71,West,270,2.5,2.5,78,0.00,,---,0.00,VWS V14.01,2013-02-24 09:41:00,
2013-02-24 03:46:00,24.1,18.2,29.71,SSW,202,2.2,2.2,78,0.00,,---,0.00,VWS V14.01,2013-02-24 09:46:00,
2013-02-24 03:51:00,24.3,18.4,29.71,South,180,5.4,5.4,78,0.00,,---,0.00,VWS V14.01,2013-02-24 09:51:00,
2013-02-24 03:56:00,24.3,18.4,29.68,SSE,158,0.9,2.5,78,0.00,,---,0.00,VWS V14.01,2013-02-24 09:56:00,
2013-02-24 04:01:00,24.4,18.6,29.68,South,180,2.5,2.5,78,0.00,,---,0.00,VWS V14.01,2013-02-24 10:01:00,
2013-02-24 04:06:00,24.4,18.6,29.68,SSW,202,1.6,1.6,78,0.00,,---,0.00,VWS V14.01,2013-02-24 10:06:00,
2013-02-24 04:11:00,24.4,18.6,29.71,WSW,248,2.5,2.5,78,0.00,,---,0.00,VWS V14.01,2013-02-24 10:11:00,
2013-02-24 04:16:00,24.4,18.6,29.71,SSE,158,1.1,1.1,78,0.00,,---,0.00,VWS V14.01,2013-02-24 10:16:00,
2013-02-24 04:21:00,24.4,18.6,29.71,South,180,2.2,2.2,78,0.00,,---,0.00,VWS V14.01,2013-02-24 10:21:00,
2013-02-24 04:26:00,24.4,18.6,29.71,South,180,2.0,2.0,78,0.00,,---,0.00,VWS V14.01,2013-02-24 10:26:00,
2013-02-24 04:31:00,24.4,18.6,29.71,South,180,3.1,3.1,78,0.00,,---,0.00,VWS V14.01,2013-02-24 10:31:00,
2013-02-24 04:36:00,24.3,18.4,29.71,SW,225,1.1,1.1,78,0.00,,---,0.00,VWS V14.01,2013-02-24 10:36:00,
2013-02-24 04:41:00,23.9,18.0,29.71,SW,225,0.0,0.0,78,0.00,,---,0.00,VWS V14.01,2013-02-24 10:41:00,
2013-02-24 04:46:00,23.7,17.9,29.71,SW,225,1.1,1.6,78,0.00,,---,0.00,VWS V14.01,2013-02-24 10:46:00,
2013-02-24 04:51:00,23.5,17.7,29.71,SW,225,0.0,0.0,78,0.00,,---,0.00,VWS V14.01,2013-02-24 10:51:00,
2013-02-24 04:56:00,23.4,17.5,29.71,SW,225,0.0,0.0,78,0.00,,---,0.00,VWS V14.01,2013-02-24 10:56:00,
2013-02-24 05:01:00,23.2,17.4,29.71,SW,225,0.0,0.0,78,0.00,,---,0.00,VWS V14.01,2013-02-24 11:01:00,
2013-02-24 05:06:00,23.0,17.5,29.71,SW,225,0.0,0.0,79,0.00,,---,0.00,VWS V14.01,2013-02-24 11:06:00,
2013-02-24 05:11:00,22.8,17.3,29.71,South,180,2.5,2.5,79,0.00,,---,0.00,VWS V14.01,2013-02-24 11:11:00,
2013-02-24 05:16:00,22.8,17.3,29.71,South,180,0.9,0.9,79,0.00,,---,0.00,VWS V14.01,2013-02-24 11:16:00,
2013-02-24 05:21:00,22.8,17.3,29.71,SSW,202,0.0,0.0,79,0.00,,---,0.00,VWS V14.01,2013-02-24 11:21:00,
2013-02-24 05:26:00,22.8,17.3,29.71,South,180,0.0,0.9,79,0.00,,---,0.00,VWS V14.01,2013-02-24 11:26:00,
2013-02-24 05:31:00,22.8,17.3,29.71,SSW,202,0.0,0.0,79,0.00,,---,0.00,VWS V14.01,2013-02-24 11:31:00,
2013-02-24 05:36:00,22.6,17.1,29.71,SW,225,0.0,0.0,79,0.00,,---,0.00,VWS V14.01,2013-02-24 11:36:00,
2013-02-24 05:41:00,22.6,17.1,29.71,SW,225,0.0,0.0,79,0.00,,---,0.00,VWS V14.01,2013-02-24 11:41:00,
2013-02-24 05:46:00,22.8,17.6,29.71,South,180,1.3,1.6,80,0.00,,---,0.00,VWS V14.01,2013-02-24 11:46:00,
2013-02-24 05:51:00,23.0,17.8,29.71,SSE,158,0.0,0.0,80,0.00,,---,0.00,VWS V14.01,2013-02-24 11:51:00,
2013-02-24 05:56:00,23.4,17.8,29.74,South,180,2.0,2.0,79,0.00,,---,0.00,VWS V14.01,2013-02-24 11:56:00,
2013-02-24 06:01:00,23.4,17.8,29.74,SSE,158,3.4,3.4,79,0.00,,---,0.00,VWS V14.01,2013-02-24 12:01:00,
2013-02-24 06:06:00,23.9,18.6,29.74,South,180,0.9,0.9,80,0.00,,---,0.00,VWS V14.01,2013-02-24 12:06:00,
2013-02-24 06:11:00,24.1,18.8,29.74,SSE,158,1.6,1.6,80,0.00,,---,0.00,VWS V14.01,2013-02-24 12:11:00,
2013-02-24 06:16:00,24.3,19.0,29.74,SSW,202,0.0,0.9,80,0.00,,---,0.00,VWS V14.01,2013-02-24 12:16:00,
2013-02-24 06:21:00,24.4,18.9,29.74,South,180,1.6,1.6,79,0.00,,---,0.00,VWS V14.01,2013-02-24 12:21:00,
2013-02-24 06:26:00,24.4,18.9,29.74,SSE,158,0.9,0.9,79,0.00,,---,0.00,VWS V14.01,2013-02-24 12:26:00,
2013-02-24 06:31:00,24.4,18.9,29.74,SSE,158,1.3,1.3,79,0.00,,---,0.00,VWS V14.01,2013-02-24 12:31:00,
2013-02-24 06:36:00,24.4,18.9,29.74,SE,135,1.3,1.6,79,0.00,,---,0.00,VWS V14.01,2013-02-24 12:36:00,
2013-02-24 06:42:00,24.4,18.9,29.74,SSE,158,1.3,1.3,79,0.00,,---,0.00,VWS V14.01,2013-02-24 12:42:00,
2013-02-24 06:47:00,24.4,18.9,29.74,SE,135,2.5,2.5,79,0.00,,---,0.00,VWS V14.01,2013-02-24 12:47:00,
2013-02-24 06:52:00,24.4,18.9,29.74,ESE,112,1.6,2.5,79,0.00,,---,0.00,VWS V14.01,2013-02-24 12:52:00,
2013-02-24 06:57:00,24.4,18.6,29.74,SSE,158,2.5,2.5,78,0.00,,---,0.00,VWS V14.01,2013-02-24 12:57:00,
2013-02-24 07:02:00,24.4,18.6,29.74,SE,135,1.6,1.6,78,0.00,,---,0.00,VWS V14.01,2013-02-24 13:02:00,
2013-02-24 07:07:00,24.4,18.6,29.74,SE,135,2.0,2.0,78,0.00,,---,0.00,VWS V14.01,2013-02-24 13:07:00,
2013-02-24 07:12:00,24.4,18.6,29.74,SE,135,1.3,1.3,78,0.00,,---,0.00,VWS V14.01,2013-02-24 13:12:00,
2013-02-24 07:17:00,24.4,18.6,29.74,SE,135,2.5,2.5,78,0.00,,---,0.00,VWS V14.01,2013-02-24 13:17:00,
2013-02-24 07:22:00,24.6,18.8,29.74,SSE,158,2.9,4.0,78,0.00,,---,0.00,VWS V14.01,2013-02-24 13:22:00,
2013-02-24 07:27:00,24.6,18.8,29.74,SE,135,3.4,3.4,78,0.00,,---,0.00,VWS V14.01,2013-02-24 13:27:00,
2013-02-24 07:32:00,24.6,18.8,29.74,SSE,158,2.2,2.9,78,0.00,,---,0.00,VWS V14.01,2013-02-24 13:32:00,
2013-02-24 07:37:00,24.8,18.9,29.74,SSE,158,2.5,2.5,78,0.00,,---,0.00,VWS V14.01,2013-02-24 13:37:00,
2013-02-24 07:42:00,25.0,19.1,29.74,SSW,202,1.6,1.6,78,0.00,,---,0.00,VWS V14.01,2013-02-24 13:42:00,
2013-02-24 07:47:00,25.2,19.3,29.74,SE,135,1.3,2.2,78,0.00,,---,0.00,VWS V14.01,2013-02-24 13:47:00,
2013-02-24 07:52:00,25.3,19.5,29.74,East,90,2.0,2.0,78,0.00,,---,0.00,VWS V14.01,2013-02-24 13:52:00,
2013-02-24 07:57:00,25.3,19.5,29.74,SSE,158,2.9,3.4,78,0.00,,---,0.00,VWS V14.01,2013-02-24 13:57:00,
2013-02-24 08:02:00,25.5,19.3,29.74,ESE,112,1.6,3.4,77,0.00,,---,0.00,VWS V14.01,2013-02-24 14:02:00,
2013-02-24 08:07:00,25.5,19.3,29.74,ESE,112,2.0,2.0,77,0.00,,---,0.00,VWS V14.01,2013-02-24 14:07:00,
2013-02-24 08:12:00,25.7,19.5,29.74,ESE,112,2.9,2.9,77,0.00,,---,0.00,VWS V14.01,2013-02-24 14:12:00,
2013-02-24 08:17:00,25.7,19.5,29.74,SSE,158,2.0,2.0,77,0.00,,---,0.00,VWS V14.01,2013-02-24 14:17:00,
2013-02-24 08:22:00,26.1,19.9,29.74,SE,135,2.9,2.9,77,0.00,,---,0.00,VWS V14.01,2013-02-24 14:22:00,
2013-02-24 08:27:00,26.1,19.9,29.76,SE,135,2.2,2.2,77,0.00,,---,0.00,VWS V14.01,2013-02-24 14:27:00,
2013-02-24 08:32:00,26.2,20.0,29.76,SE,135,2.0,2.0,77,0.00,,---,0.00,VWS V14.01,2013-02-24 14:32:00,
2013-02-24 08:37:00,26.2,20.0,29.76,SSE,158,3.6,3.6,77,0.00,,---,0.00,VWS V14.01,2013-02-24 14:37:00,
2013-02-24 08:42:00,26.2,19.7,29.76,SSE,158,2.7,2.7,76,0.00,,---,0.00,VWS V14.01,2013-02-24 14:42:00,
2013-02-24 08:47:00,26.4,19.9,29.76,ESE,112,3.6,3.6,76,0.00,,---,0.00,VWS V14.01,2013-02-24 14:47:00,
2013-02-24 08:52:00,26.6,20.1,29.76,ESE,112,2.9,4.3,76,0.00,,---,0.00,VWS V14.01,2013-02-24 14:52:00,
2013-02-24 08:57:00,26.6,20.1,29.76,ESE,112,4.0,4.0,76,0.00,,---,0.00,VWS V14.01,2013-02-24 14:57:00,
2013-02-24 09:02:00,26.8,19.9,29.76,SSE,158,4.3,4.3,75,0.00,,---,0.00,VWS V14.01,2013-02-24 15:02:00,
2013-02-24 09:07:00,27.0,20.1,29.76,SSE,158,1.3,1.6,75,0.00,,---,0.00,VWS V14.01,2013-02-24 15:07:00,
2013-02-24 09:12:00,27.1,20.3,29.76,SSE,158,1.3,1.3,75,0.00,,---,0.00,VWS V14.01,2013-02-24 15:12:00,
2013-02-24 09:17:00,27.5,20.6,29.76,ESE,112,1.1,3.4,75,0.00,,---,0.00,VWS V14.01,2013-02-24 15:17:00,
2013-02-24 09:22:00,27.9,21.0,29.76,SSE,158,1.6,1.6,75,0.00,,---,0.00,VWS V14.01,2013-02-24 15:22:00,
2013-02-24 09:27:00,28.4,21.5,29.76,South,180,2.5,2.7,75,0.00,,---,0.00,VWS V14.01,2013-02-24 15:27:00,
2013-02-24 09:32:00,28.8,21.5,29.76,SSE,158,2.0,2.0,74,0.00,,---,0.00,VWS V14.01,2013-02-24 15:32:00,
2013-02-24 09:38:00,29.1,21.9,29.76,SSE,158,2.0,2.0,74,0.00,,---,0.00,VWS V14.01,2013-02-24 15:38:00,
2013-02-24 09:42:00,29.3,22.1,29.76,SSW,202,1.6,1.6,74,0.00,,---,0.00,VWS V14.01,2013-02-24 15:42:00,
2013-02-24 09:48:00,29.5,22.2,29.76,SSW,202,3.6,3.6,74,0.00,,---,0.00,VWS V14.01,2013-02-24 15:48:00,
2013-02-24 09:53:00,29.7,22.1,29.76,South,180,2.9,2.9,73,0.00,,---,0.00,VWS V14.01,2013-02-24 15:53:00,
2013-02-24 09:58:00,29.7,22.1,29.76,South,180,2.2,2.2,73,0.00,,---,0.00,VWS V14.01,2013-02-24 15:58:00,
2013-02-24 10:03:00,30.2,22.6,29.76,South,180,1.6,1.6,73,0.00,,---,0.00,VWS V14.01,2013-02-24 16:03:00,
2013-02-24 10:08:00,30.2,22.6,29.79,South,180,2.0,2.2,73,0.00,,---,0.00,VWS V14.01,2013-02-24 16:08:00,
2013-02-24 10:13:00,30.6,22.6,29.79,South,180,1.3,1.3,72,0.00,,---,0.00,VWS V14.01,2013-02-24 16:13:00,
2013-02-24 10:18:00,31.1,23.1,29.79,ENE,68,2.7,2.7,72,0.00,,---,0.00,VWS V14.01,2013-02-24 16:18:00,
2013-02-24 10:23:00,31.3,23.3,29.79,SSE,158,1.1,1.1,72,0.00,,---,0.00,VWS V14.01,2013-02-24 16:23:00,
2013-02-24 10:28:00,31.6,23.3,29.79,SSE,158,1.1,1.1,71,0.00,,---,0.00,VWS V14.01,2013-02-24 16:28:00,
2013-02-24 10:33:00,31.6,23.3,29.79,ESE,112,1.6,1.6,71,0.00,,---,0.00,VWS V14.01,2013-02-24 16:33:00,
2013-02-24 10:38:00,32.2,23.9,29.79,SE,135,1.6,1.6,71,0.00,,---,0.00,VWS V14.01,2013-02-24 16:38:00,
2013-02-24 10:43:00,32.4,24.0,29.79,SW,225,0.9,0.9,71,0.00,,---,0.00,VWS V14.01,2013-02-24 16:43:00,
2013-02-24 10:48:00,32.7,24.0,29.79,SSE,158,2.9,2.9,70,0.00,,---,0.00,VWS V14.01,2013-02-24 16:48:00,
2013-02-24 10:53:00,33.1,24.4,29.79,SE,135,1.6,1.6,70,0.00,,---,0.00,VWS V14.01,2013-02-24 16:53:00,
2013-02-24 10:58:00,33.6,24.9,29.79,SSE,158,1.6,1.6,70,0.00,,---,0.00,VWS V14.01,2013-02-24 16:58:00,
2013-02-24 11:03:00,33.8,24.7,29.79,ESE,112,2.0,2.0,69,0.00,,---,0.00,VWS V14.01,2013-02-24 17:03:00,
2013-02-24 11:08:00,33.8,24.7,29.79,SSW,202,3.4,3.4,69,0.00,,---,0.00,VWS V14.01,2013-02-24 17:08:00,
2013-02-24 11:13:00,33.8,24.4,29.79,South,180,2.7,2.7,68,0.00,,---,0.00,VWS V14.01,2013-02-24 17:13:00,
2013-02-24 11:18:00,34.3,24.9,29.79,South,180,1.1,1.1,68,0.00,,---,0.00,VWS V14.01,2013-02-24 17:18:00,
2013-02-24 11:23:00,34.9,25.4,29.79,South,180,2.9,2.9,68,0.00,,---,0.00,VWS V14.01,2013-02-24 17:23:00,
2013-02-24 11:28:00,34.9,25.0,29.79,SSE,158,3.1,3.1,67,0.00,,---,0.00,VWS V14.01,2013-02-24 17:28:00,
2013-02-24 11:33:00,35.1,25.2,29.79,SSE,158,2.2,2.7,67,0.00,,---,0.00,VWS V14.01,2013-02-24 17:33:00,
2013-02-24 11:38:00,35.8,25.5,29.79,SSE,158,1.6,1.6,66,0.00,,---,0.00,VWS V14.01,2013-02-24 17:38:00,
2013-02-24 11:43:00,36.1,25.5,29.79,South,180,0.0,0.0,65,0.00,,---,0.00,VWS V14.01,2013-02-24 17:43:00,
2013-02-24 11:48:00,36.7,26.0,29.79,SSW,202,1.3,1.3,65,0.00,,---,0.00,VWS V14.01,2013-02-24 17:48:00,
2013-02-24 11:53:00,37.4,26.4,29.79,WSW,248,1.6,1.6,64,0.00,,---,0.00,VWS V14.01,2013-02-24 17:53:00,
2013-02-24 11:58:00,37.9,26.5,29.79,SSW,202,2.0,3.4,63,0.00,,---,0.00,VWS V14.01,2013-02-24 17:58:00,
2013-02-24 12:03:00,38.5,27.0,29.79,South,180,2.5,2.5,63,0.00,,---,0.00,VWS V14.01,2013-02-24 18:03:00,
2013-02-24 12:08:00,38.1,26.6,29.79,SSW,202,2.2,2.2,63,0.00,,---,0.00,VWS V14.01,2013-02-24 18:08:00,
2013-02-24 12:13:00,38.3,26.4,29.79,South,180,2.9,3.6,62,0.00,,---,0.00,VWS V14.01,2013-02-24 18:13:00,
2013-02-24 12:18:00,38.5,26.6,29.79,South,180,2.7,2.7,62,0.00,,---,0.00,VWS V14.01,2013-02-24 18:18:00,
2013-02-24 12:23:00,39.2,26.9,29.79,South,180,2.7,2.7,61,0.00,,---,0.00,VWS V14.01,2013-02-24 18:23:00,
2013-02-24 12:28:00,38.7,26.4,29.79,West,270,0.9,2.0,61,0.00,,---,0.00,VWS V14.01,2013-02-24 18:28:00,
2013-02-24 12:33:00,38.5,25.8,29.79,ESE,112,1.1,1.1,60,0.00,,---,0.00,VWS V14.01,2013-02-24 18:33:00,
2013-02-24 12:38:00,39.2,26.5,29.79,NNE,22,0.0,1.1,60,0.00,,---,0.00,VWS V14.01,2013-02-24 18:38:00,
2013-02-24 12:43:00,39.0,26.3,29.79,South,180,1.3,1.3,60,0.00,,---,0.00,VWS V14.01,2013-02-24 18:43:00,
2013-02-24 12:48:00,39.0,26.7,29.79,SE,135,2.2,2.2,61,0.00,,---,0.00,VWS V14.01,2013-02-24 18:48:00,
2013-02-24 12:53:00,38.7,26.0,29.76,South,180,2.7,2.7,60,0.00,,---,0.00,VWS V14.01,2013-02-24 18:53:00,
2013-02-24 12:58:00,38.7,26.0,29.76,SSE,158,2.0,2.0,60,0.00,,---,0.00,VWS V14.01,2013-02-24 18:58:00,
2013-02-24 13:03:00,39.0,26.3,29.76,SE,135,2.7,2.7,60,0.00,,---,0.00,VWS V14.01,2013-02-24 19:03:00,
2013-02-24 13:08:00,39.7,27.0,29.76,SSE,158,3.1,3.1,60,0.00,,---,0.00,VWS V14.01,2013-02-24 19:08:00,
2013-02-24 13:13:00,40.1,26.9,29.76,ESE,112,2.5,2.5,59,0.00,,---,0.00,VWS V14.01,2013-02-24 19:13:00,
2013-02-24 13:18:00,40.5,27.3,29.76,SSE,158,2.5,2.5,59,0.00,,---,0.00,VWS V14.01,2013-02-24 19:18:00,
2013-02-24 13:23:00,40.8,27.6,29.76,SSW,202,3.6,3.6,59,0.00,,---,0.00,VWS V14.01,2013-02-24 19:23:00,
2013-02-24 13:28:00,41.7,28.0,29.76,SSE,158,2.5,2.5,58,0.00,,---,0.00,VWS V14.01,2013-02-24 19:28:00,
2013-02-24 13:33:00,42.4,28.3,29.76,WSW,248,2.9,2.9,57,0.00,,---,0.00,VWS V14.01,2013-02-24 19:33:00,
2013-02-24 13:38:00,43.5,28.9,29.76,West,270,1.3,1.3,56,0.00,,---,0.00,VWS V14.01,2013-02-24 19:38:00,
2013-02-24 13:43:00,43.3,28.7,29.76,South,180,3.4,3.4,56,0.00,,---,0.00,VWS V14.01,2013-02-24 19:43:00,
2013-02-24 13:48:00,44.2,29.1,29.76,South,180,0.0,3.4,55,0.00,,---,0.00,VWS V14.01,2013-02-24 19:48:00,
2013-02-24 13:53:00,45.7,30.5,29.74,ESE,112,3.6,3.6,55,0.00,,---,0.00,VWS V14.01,2013-02-24 19:53:00,
2013-02-24 13:58:00,46.0,30.8,29.74,SSE,158,1.1,1.1,55,0.00,,---,0.00,VWS V14.01,2013-02-24 19:58:00,
2013-02-24 14:03:00,46.0,29.9,29.74,South,180,3.1,3.1,53,0.00,,---,0.00,VWS V14.01,2013-02-24 20:03:00,
2013-02-24 14:08:00,46.4,30.2,29.74,ESE,112,4.3,4.3,53,0.00,,---,0.00,VWS V14.01,2013-02-24 20:08:00,
2013-02-24 14:13:00,45.5,29.4,29.74,SE,135,2.9,2.9,53,0.00,,---,0.00,VWS V14.01,2013-02-24 20:13:00,
2013-02-24 14:18:00,45.3,28.8,29.74,SW,225,1.3,3.8,52,0.00,,---,0.00,VWS V14.01,2013-02-24 20:18:00,
2013-02-24 14:23:00,45.9,29.2,29.74,West,270,2.5,2.5,52,0.00,,---,0.00,VWS V14.01,2013-02-24 20:23:00,
2013-02-24 14:28:00,44.8,28.2,29.74,South,180,0.9,0.9,52,0.00,,---,0.00,VWS V14.01,2013-02-24 20:28:00,
2013-02-24 14:33:00,44.8,28.2,29.74,SW,225,3.1,3.1,52,0.00,,---,0.00,VWS V14.01,2013-02-24 20:33:00,
2013-02-24 14:38:00,45.1,28.6,29.74,East,90,2.5,2.5,52,0.00,,---,0.00,VWS V14.01,2013-02-24 20:38:00,
2013-02-24 14:43:00,45.5,28.9,29.74,SSW,202,0.0,2.2,52,0.00,,---,0.00,VWS V14.01,2013-02-24 20:43:00,
2013-02-24 14:48:00,45.9,29.2,29.74,South,180,2.5,2.5,52,0.00,,---,0.00,VWS V14.01,2013-02-24 20:48:00,
2013-02-24 14:53:00,45.9,29.2,29.74,SE,135,3.8,3.8,52,0.00,,---,0.00,VWS V14.01,2013-02-24 20:53:00,
2013-02-24 14:58:00,45.3,28.3,29.74,ENE,68,0.0,2.7,51,0.00,,---,0.00,VWS V14.01,2013-02-24 20:58:00,
2013-02-24 15:03:00,44.8,27.8,29.74,SW,225,2.7,2.7,51,0.00,,---,0.00,VWS V14.01,2013-02-24 21:03:00,
2013-02-24 15:08:00,45.3,27.8,29.74,South,180,2.2,2.9,50,0.00,,---,0.00,VWS V14.01,2013-02-24 21:08:00,
2013-02-24 15:13:00,44.8,27.3,29.74,ESE,112,2.5,3.4,50,0.00,,---,0.00,VWS V14.01,2013-02-24 21:13:00,
2013-02-24 15:18:00,45.5,28.0,29.74,SSE,158,2.0,2.0,50,0.00,,---,0.00,VWS V14.01,2013-02-24 21:18:00,
2013-02-24 15:23:00,45.9,28.3,29.74,ENE,68,1.3,1.3,50,0.00,,---,0.00,VWS V14.01,2013-02-24 21:23:00,
2013-02-24 15:28:00,46.0,28.5,29.74,ENE,68,2.0,2.0,50,0.00,,---,0.00,VWS V14.01,2013-02-24 21:28:00,
2013-02-24 15:33:00,45.7,28.1,29.74,ESE,112,2.2,2.2,50,0.00,,---,0.00,VWS V14.01,2013-02-24 21:33:00,
2013-02-24 15:38:00,45.0,27.5,29.74,South,180,2.0,2.0,50,0.00,,---,0.00,VWS V14.01,2013-02-24 21:38:00,
2013-02-24 15:43:00,44.6,27.1,29.74,SW,225,2.5,2.7,50,0.00,,---,0.00,VWS V14.01,2013-02-24 21:43:00,
2013-02-24 15:48:00,45.0,27.5,29.74,SE,135,2.2,3.4,50,0.00,,---,0.00,VWS V14.01,2013-02-24 21:48:00,
2013-02-24 15:53:00,43.7,26.3,29.74,SE,135,2.7,2.7,50,0.00,,---,0.00,VWS V14.01,2013-02-24 21:53:00,
2013-02-24 15:58:00,43.5,26.1,29.74,South,180,1.6,2.0,50,0.00,,---,0.00,VWS V14.01,2013-02-24 21:58:00,
2013-02-24 16:03:00,43.7,26.3,29.74,ESE,112,3.4,3.4,50,0.00,,---,0.00,VWS V14.01,2013-02-24 22:03:00,
2013-02-24 16:08:00,43.5,26.1,29.74,ESE,112,2.5,2.5,50,0.00,,---,0.00,VWS V14.01,2013-02-24 22:08:00,
2013-02-24 16:13:00,43.3,26.0,29.74,South,180,0.0,2.9,50,0.00,,---,0.00,VWS V14.01,2013-02-24 22:13:00,
2013-02-24 16:18:00,43.5,26.1,29.74,North,0,1.6,3.8,50,0.00,,---,0.00,VWS V14.01,2013-02-24 22:18:00,
2013-02-24 16:23:00,42.8,26.4,29.74,West,270,2.5,2.5,52,0.00,,---,0.00,VWS V14.01,2013-02-24 22:23:00,
2013-02-24 16:28:00,42.3,25.9,29.74,North,0,1.1,1.1,52,0.00,,---,0.00,VWS V14.01,2013-02-24 22:28:00,
2013-02-24 16:33:00,41.9,26.0,29.74,ESE,112,1.6,1.6,53,0.00,,---,0.00,VWS V14.01,2013-02-24 22:33:00,
2013-02-24 16:38:00,41.9,26.0,29.74,NNW,338,1.6,1.6,53,0.00,,---,0.00,VWS V14.01,2013-02-24 22:38:00,
2013-02-24 16:43:00,42.1,26.6,29.74,WNW,292,1.3,2.9,54,0.00,,---,0.00,VWS V14.01,2013-02-24 22:43:00,
2013-02-24 16:48:00,41.9,26.0,29.74,SSE,158,3.4,3.4,53,0.00,,---,0.00,VWS V14.01,2013-02-24 22:48:00,
2013-02-24 16:53:00,41.9,26.5,29.76,North,0,1.3,2.9,54,0.00,,---,0.00,VWS V14.01,2013-02-24 22:53:00,
2013-02-24 16:58:00,42.1,26.6,29.76,ENE,68,1.1,2.5,54,0.00,,---,0.00,VWS V14.01,2013-02-24 22:58:00,
2013-02-24 17:03:00,41.9,26.5,29.76,ENE,68,0.0,2.0,54,0.00,,---,0.00,VWS V14.01,2013-02-24 23:03:00,
2013-02-24 17:08:00,41.0,25.6,29.76,WNW,292,2.2,2.2,54,0.00,,---,0.00,VWS V14.01,2013-02-24 23:08:00,
2013-02-24 17:13:00,40.6,25.8,29.76,ENE,68,1.3,2.5,55,0.00,,---,0.00,VWS V14.01,2013-02-24 23:13:00,
2013-02-24 17:18:00,40.5,25.6,29.76,ENE,68,3.4,3.4,55,0.00,,---,0.00,VWS V14.01,2013-02-24 23:18:00,
2013-02-24 17:23:00,40.1,25.2,29.76,NNE,22,0.0,0.0,55,0.00,,---,0.00,VWS V14.01,2013-02-24 23:23:00,
2013-02-24 17:28:00,39.7,25.3,29.76,ENE,68,1.3,1.3,56,0.00,,---,0.00,VWS V14.01,2013-02-24 23:28:00,
2013-02-24 17:33:00,39.4,25.0,29.76,SSE,158,1.1,1.3,56,0.00,,---,0.00,VWS V14.01,2013-02-24 23:33:00,
2013-02-24 17:39:00,39.2,24.8,29.76,North,0,1.6,1.6,56,0.00,,---,0.00,VWS V14.01,2013-02-24 23:39:00,
2013-02-24 17:44:00,38.8,24.9,29.76,ENE,68,3.1,3.1,57,0.00,,---,0.00,VWS V14.01,2013-02-24 23:44:00,
2013-02-24 17:49:00,38.7,24.8,29.76,ENE,68,1.6,1.6,57,0.00,,---,0.00,VWS V14.01,2013-02-24 23:49:00,
2013-02-24 17:54:00,38.7,25.2,29.76,ENE,68,3.1,3.1,58,0.00,,---,0.00,VWS V14.01,2013-02-24 23:54:00,
2013-02-24 17:59:00,38.5,25.0,29.76,ENE,68,5.8,5.8,58,0.00,,---,0.00,VWS V14.01,2013-02-24 23:59:00,
2013-02-24 18:04:00,38.3,24.8,29.76,ENE,68,2.7,2.7,58,0.00,,---,0.00,VWS V14.01,2013-02-25 00:04:00,
2013-02-24 18:09:00,38.1,24.7,29.76,NE,45,2.0,2.0,58,0.00,,---,0.00,VWS V14.01,2013-02-25 00:09:00,
2013-02-24 18:14:00,38.1,25.1,29.76,East,90,3.1,3.8,59,0.00,,---,0.00,VWS V14.01,2013-02-25 00:14:00,
2013-02-24 18:19:00,37.9,24.9,29.76,NE,45,2.5,2.5,59,0.00,,---,0.00,VWS V14.01,2013-02-25 00:19:00,
2013-02-24 18:24:00,37.9,24.9,29.79,ENE,68,3.1,3.1,59,0.00,,---,0.00,VWS V14.01,2013-02-25 00:24:00,
2013-02-24 18:29:00,37.8,24.7,29.79,ENE,68,2.7,2.7,59,0.00,,---,0.00,VWS V14.01,2013-02-25 00:29:00,
2013-02-24 18:34:00,37.6,25.0,29.79,NNW,338,3.6,3.6,60,0.00,,---,0.00,VWS V14.01,2013-02-25 00:34:00,
2013-02-24 18:39:00,37.6,25.0,29.79,NNE,22,4.3,4.3,60,0.00,,---,0.00,VWS V14.01,2013-02-25 00:39:00,
2013-02-24 18:44:00,37.6,25.0,29.79,NNE,22,1.3,2.7,60,0.00,,---,0.00,VWS V14.01,2013-02-25 00:44:00,
2013-02-24 18:49:00,37.4,24.8,29.79,ENE,68,4.3,4.3,60,0.00,,---,0.00,VWS V14.01,2013-02-25 00:49:00,
2013-02-24 18:54:00,37.4,24.8,29.79,ENE,68,4.3,4.3,60,0.00,,---,0.00,VWS V14.01,2013-02-25 00:54:00,
2013-02-24 18:59:00,37.2,25.0,29.79,ENE,68,2.0,3.4,61,0.00,,---,0.00,VWS V14.01,2013-02-25 00:59:00,
2013-02-24 19:04:00,37.2,25.0,29.79,ENE,68,3.4,3.4,61,0.00,,---,0.00,VWS V14.01,2013-02-25 01:04:00,
2013-02-24 19:09:00,37.0,24.9,29.79,NE,45,3.4,3.4,61,0.00,,---,0.00,VWS V14.01,2013-02-25 01:09:00,
2013-02-24 19:14:00,37.0,25.2,29.79,NNE,22,3.4,3.4,62,0.00,,---,0.00,VWS V14.01,2013-02-25 01:14:00,
2013-02-24 19:19:00,37.0,25.2,29.79,NE,45,1.3,1.3,62,0.00,,---,0.00,VWS V14.01,2013-02-25 01:19:00,
2013-02-24 19:24:00,36.9,25.5,29.82,ENE,68,2.5,2.5,63,0.00,,---,0.00,VWS V14.01,2013-02-25 01:24:00,
2013-02-24 19:29:00,36.9,25.5,29.82,NNE,22,0.0,1.3,63,0.00,,---,0.00,VWS V14.01,2013-02-25 01:29:00,
2013-02-24 19:34:00,36.7,25.3,29.82,ENE,68,0.0,0.0,63,0.00,,---,0.00,VWS V14.01,2013-02-25 01:34:00,
2013-02-24 19:39:00,36.7,25.7,29.82,NE,45,0.0,0.0,64,0.00,,---,0.00,VWS V14.01,2013-02-25 01:39:00,
2013-02-24 19:44:00,36.5,25.5,29.82,NNE,22,0.0,0.0,64,0.00,,---,0.00,VWS V14.01,2013-02-25 01:44:00,
2013-02-24 19:49:00,36.3,25.7,29.82,NNE,22,0.0,0.0,65,0.00,,---,0.00,VWS V14.01,2013-02-25 01:49:00,
2013-02-24 19:54:00,36.3,25.7,29.82,NNW,338,1.3,2.5,65,0.00,,---,0.00,VWS V14.01,2013-02-25 01:54:00,
2013-02-24 19:59:00,36.1,25.5,29.82,NNW,338,1.3,1.6,65,0.00,,---,0.00,VWS V14.01,2013-02-25 01:59:00,
2013-02-24 20:04:00,36.0,25.4,29.82,East,90,0.0,0.0,65,0.00,,---,0.00,VWS V14.01,2013-02-25 02:04:00,
2013-02-24 20:09:00,35.8,25.2,29.82,NW,315,0.0,0.0,65,0.00,,---,0.00,VWS V14.01,2013-02-25 02:09:00,
2013-02-24 20:14:00,35.8,25.2,29.82,NNW,338,0.0,2.5,65,0.00,,---,0.00,VWS V14.01,2013-02-25 02:14:00,
2013-02-24 20:19:00,35.8,25.2,29.82,NNW,338,2.0,2.0,65,0.00,,---,0.00,VWS V14.01,2013-02-25 02:19:00,
2013-02-24 20:24:00,35.6,25.4,29.82,East,90,2.5,3.4,66,0.00,,---,0.00,VWS V14.01,2013-02-25 02:24:00,
2013-02-24 20:29:00,35.6,25.4,29.82,NNE,22,2.5,2.5,66,0.00,,---,0.00,VWS V14.01,2013-02-25 02:29:00,
2013-02-24 20:34:00,35.6,25.4,29.82,NNE,22,3.1,3.1,66,0.00,,---,0.00,VWS V14.01,2013-02-25 02:34:00,
2013-02-24 20:39:00,35.4,25.2,29.82,North,0,2.5,2.9,66,0.00,,---,0.00,VWS V14.01,2013-02-25 02:39:00,
2013-02-24 20:44:00,35.2,25.4,29.82,NE,45,0.9,2.5,67,0.00,,---,0.00,VWS V14.01,2013-02-25 02:44:00,
2013-02-24 20:49:00,35.1,25.2,29.82,NNW,338,3.4,3.4,67,0.00,,---,0.00,VWS V14.01,2013-02-25 02:49:00,
2013-02-24 20:54:00,35.1,25.2,29.82,NNE,22,0.0,2.5,67,0.00,,---,0.00,VWS V14.01,2013-02-25 02:54:00,
2013-02-24 20:59:00,34.9,25.0,29.82,NNW,338,1.3,1.3,67,0.00,,---,0.00,VWS V14.01,2013-02-25 02:59:00,
2013-02-24 21:04:00,34.9,25.0,29.82,ESE,112,1.3,2.7,67,0.00,,---,0.00,VWS V14.01,2013-02-25 03:04:00,
2013-02-24 21:09:00,34.7,24.9,29.85,North,0,1.6,2.5,67,0.00,,---,0.00,VWS V14.01,2013-02-25 03:09:00,
2013-02-24 21:14:00,34.5,25.1,29.85,NNW,338,2.5,2.9,68,0.00,,---,0.00,VWS V14.01,2013-02-25 03:14:00,
2013-02-24 21:19:00,34.3,24.9,29.85,North,0,2.0,2.0,68,0.00,,---,0.00,VWS V14.01,2013-02-25 03:19:00,
2013-02-24 21:24:00,34.3,24.9,29.85,NE,45,0.0,2.5,68,0.00,,---,0.00,VWS V14.01,2013-02-25 03:24:00,
2013-02-24 21:29:00,34.2,24.7,29.85,ENE,68,1.6,1.6,68,0.00,,---,0.00,VWS V14.01,2013-02-25 03:29:00,
2013-02-24 21:34:00,34.2,25.1,29.85,SSE,158,1.6,1.6,69,0.00,,---,0.00,VWS V14.01,2013-02-25 03:34:00,
2013-02-24 21:39:00,34.0,24.9,29.85,NNE,22,1.3,1.3,69,0.00,,---,0.00,VWS V14.01,2013-02-25 03:39:00,
2013-02-24 21:44:00,34.0,25.2,29.85,ENE,68,2.0,4.3,70,0.00,,---,0.00,VWS V14.01,2013-02-25 03:44:00,
2013-02-24 21:49:00,34.0,25.2,29.85,SW,225,1.3,4.7,70,0.00,,---,0.00,VWS V14.01,2013-02-25 03:49:00,
2013-02-24 21:54:00,33.8,25.1,29.85,SSE,158,1.6,1.6,70,0.00,,---,0.00,VWS V14.01,2013-02-25 03:54:00,
2013-02-24 21:59:00,33.6,24.9,29.85,NNE,22,2.5,3.1,70,0.00,,---,0.00,VWS V14.01,2013-02-25 03:59:00,
2013-02-24 22:05:00,33.6,24.9,29.85,North,0,2.0,2.0,70,0.00,,---,0.00,VWS V14.01,2013-02-25 04:05:00,
2013-02-24 22:10:00,33.6,25.2,29.85,ENE,68,1.1,1.1,71,0.00,,---,0.00,VWS V14.01,2013-02-25 04:10:00,
2013-02-24 22:15:00,33.4,25.4,29.85,NNE,22,1.1,1.1,72,0.00,,---,0.00,VWS V14.01,2013-02-25 04:15:00,
2013-02-24 22:20:00,33.3,25.2,29.85,WNW,292,2.5,2.5,72,0.00,,---,0.00,VWS V14.01,2013-02-25 04:20:00,
2013-02-24 22:25:00,33.3,25.2,29.85,East,90,2.2,2.2,72,0.00,,---,0.00,VWS V14.01,2013-02-25 04:25:00,
2013-02-24 22:30:00,33.1,25.0,29.85,NE,45,2.9,2.9,72,0.00,,---,0.00,VWS V14.01,2013-02-25 04:30:00,
2013-02-24 22:35:00,33.1,25.0,29.85,NNE,22,2.0,3.4,72,0.00,,---,0.00,VWS V14.01,2013-02-25 04:35:00,
2013-02-24 22:40:00,32.9,24.9,29.85,NE,45,2.9,2.9,72,0.00,,---,0.00,VWS V14.01,2013-02-25 04:40:00,
2013-02-24 22:45:00,32.9,24.9,29.85,North,0,2.7,2.7,72,0.00,,---,0.00,VWS V14.01,2013-02-25 04:45:00,
2013-02-24 22:50:00,32.7,25.0,29.85,NNW,338,2.7,2.7,73,0.00,,---,0.00,VWS V14.01,2013-02-25 04:50:00,
2013-02-24 22:55:00,32.4,24.4,29.85,NNW,338,2.0,3.4,72,0.00,,---,0.00,VWS V14.01,2013-02-25 04:55:00,
2013-02-24 23:00:00,32.2,24.5,29.85,ESE,112,1.6,1.6,73,0.00,,---,0.00,VWS V14.01,2013-02-25 05:00:00,
2013-02-24 23:05:00,31.8,23.8,29.85,NNE,22,3.4,3.4,72,0.00,,---,0.00,VWS V14.01,2013-02-25 05:05:00,
2013-02-24 23:10:00,31.6,23.7,29.85,ENE,68,3.1,3.1,72,0.00,,---,0.00,VWS V14.01,2013-02-25 05:10:00,
2013-02-24 23:15:00,31.1,22.8,29.85,SE,135,4.3,4.3,71,0.00,,---,0.00,VWS V14.01,2013-02-25 05:15:00,
2013-02-24 23:20:00,30.9,22.6,29.85,NW,315,4.0,4.0,71,0.00,,---,0.00,VWS V14.01,2013-02-25 05:20:00,
2013-02-24 23:25:00,30.7,22.5,29.85,WNW,292,1.3,3.6,71,0.00,,---,0.00,VWS V14.01,2013-02-25 05:25:00,
2013-02-24 23:30:00,30.6,22.3,29.85,East,90,2.7,2.9,71,0.00,,---,0.00,VWS V14.01,2013-02-25 05:30:00,
2013-02-24 23:35:00,30.4,22.1,29.85,SSW,202,3.6,3.6,71,0.00,,---,0.00,VWS V14.01,2013-02-25 05:35:00,
2013-02-24 23:40:00,30.2,22.3,29.85,NNE,22,3.1,3.1,72,0.00,,---,0.00,VWS V14.01,2013-02-25 05:40:00,
2013-02-24 23:45:00,30.2,22.3,29.85,West,270,4.3,4.3,72,0.00,,---,0.00,VWS V14.01,2013-02-25 05:45:00,
2013-02-24 23:50:00,30.2,22.3,29.85,NNE,22,2.0,6.0,72,0.00,,---,0.00,VWS V14.01,2013-02-25 05:50:00,
2013-02-24 23:55:00,30.2,22.3,29.85,NNE,22,5.4,5.4,72,0.00,,---,0.00,VWS V14.01,2013-02-25 05:55:00,